Home   Weather   Monterrey   Past weeks

Flag for Mexico Past Weather in Monterrey, Nuevo León, Mexico — Yesterday and Last 2 Weeks

Now
95 °F

Sunny.


Feels Like: 90 °F
Forecast: N/A
Wind: 9 mph from North

Location: Aerop. Internacional Monterrey - N. L.

Current Time: Feb 22, 2017 at 4:19:39 pm

Latest Report: Feb 22, 2017 at 3:40 pm


Visibility: 15 mi

Pressure: 29.87 "Hg (28.12 "Hg at 545m altitude)

Humidity: 3%

Dew Point: 5 °F

Location of MonterreyLocation

Past Weather in Monterrey — Graph

°F

Monterrey Temperature Yesterday

Maximum temperature yesterday: 86 °F (at 3:40 pm)
Minimum temperature yesterday: 63 °F (at 6:40 am)
Average temperature yesterday: 76 °F

High & Low Weather Summary for the Past Weeks

 TemperatureHumidityPressure
High95 °F (Feb 8, 3:45 pm)100% (Feb 10, 6:41 am)30.30 "Hg (Feb 10, 6:41 am)
Low46 °F (Feb 17, 6:40 am)3% (Feb 22, 2:40 pm)29.70 "Hg (Feb 18, 5:40 pm)
Average71 °F40%30.02 "Hg
* Reported Feb 7 2:40 pm — Feb 22 2:40 pm, Monterrey, Weather by CustomWeather, © 2017

Note: Actual official high and low records may vary slightly from our data, if they occured in-between our weather recording intervals... More about our weather records

Advertising

Monterrey Weather History for the Previous 24 Hours

Scroll right to see more
 ConditionsComfort  
Time TempWeatherWind HumidityBarometerVisibility
2:40 pm
Wed, Feb 22
93 °FSunny.14 mph3%29.90 "Hg15 mi
1:40 pm91 °FSunny.6 mph4%29.94 "Hg15 mi
12:40 pm90 °FSunny.13 mph4%30.00 "Hg15 mi
11:40 am86 °FSunny.20 mph5%30.03 "Hg15 mi
10:40 am81 °FSunny.21 mph7%30.05 "Hg15 mi
9:40 am77 °FSunny.17 mph8%30.06 "Hg15 mi
8:40 am72 °FSunny.18 mph10%30.05 "Hg15 mi
7:40 am64 °FSunny.14 mph13%30.04 "Hg15 mi
6:40 am64 °FClear.7 mph13%30.03 "Hg12 mi
11:40 pm
Tue, Feb 21
73 °FClear.9 mph9%30.06 "Hg10 mi
10:41 pm72 °FClear.10 mph9%30.07 "Hg10 mi
9:40 pm72 °FClear.8 mph10%30.07 "Hg10 mi
8:40 pm75 °FClear.9 mph7%30.06 "Hg10 mi
7:40 pm75 °FClear.7 mph7%30.05 "Hg12 mi
6:40 pm82 °FClear.8 mph4%30.04 "Hg15 mi
5:41 pm86 °FSunny.13 mph4%30.04 "Hg15 mi
4:40 pm86 °FSunny.16 mph4%30.04 "Hg15 mi
Weather by CustomWeather, © 2017

See weather overviewHow to use our weather pages